Tracking 17921 objects as of 18-January-2017
HD Live streaming from Space Station
objects crossing your sky now

SL-8 R/B

Track SL-8 R/B now!
10-day predictions


NORAD ID: 22308
Int'l Code: 1993-001B
Perigee: 970.1 km
Apogee: 1,002.6 km
Inclination: 82.9 °
Period: 104.7 minutes
Semi major axis: 7357 km
RCS: 5.4041 m2 (large)
Launch date: January 12, 1993
Source: Commonwealth of Independent States (former USSR) (CIS)
Launch site: PLESETSK MISSILE AND SPACE COMPLEX (PKMTR)

Note: This is a ROCKET BODY
Your satellite tracking list
Your tracking list is empty





NASA's NSSDC Master Catalog

Two Line Element Set (TLE):
1 22308U 93001B   17016.74037655  .00000036  00000-0  21881-4 0  9993
2 22308  82.9359 280.6855 0022097 265.9939 120.6152 13.75687735205488
Source of the keplerian elements: AFSPC